Regional Weather Roundup
Issued by NWS Charleston, WV

Home | Current Version | Previous Version | Graphics & Text | Print | Product List | Glossary On
Versions: 1 2 3 4 5 6 7 8 9 10 11 12 13 14 15 16 17 18 19 20 21 22 23 24 25 26 27 28 29 30 31 32 33 34 35 36 37 38 39 40 41 42 43 44 45 46 47 48 49 50
000
ASUS41 KRLX 251110
RWRRLX
West Virginia Regional Weather Roundup
National Weather Service Charleston WV
700 AM EDT THU MAY 25 2017

Note: "fair" indicates few or no clouds below 12,000 feet with no
significant weather and/or obstructions to visibility.

WVZ003-251200-
Northern Panhandle of West Virginia

CITY           SKY/WX    TMP DP  RH WIND       PRES   REMARKS
WHEELING       LGT RAIN  56  54  93 SE8       29.46R FOG
$$

WVZ009-251200-
Northwest West Virginia

CITY           SKY/WX    TMP DP  RH WIND       PRES   REMARKS
PARKERSBURG    CLOUDY    58  54  86 SW6       29.48R
$$

WVZ006-251200-
Western West Virginia

CITY           SKY/WX    TMP DP  RH WIND       PRES   REMARKS
HUNTINGTON     CLOUDY    57  51  80 SW7G17    29.49R
$$

WVZ015-251200-
West Central West Virginia

CITY           SKY/WX    TMP DP  RH WIND       PRES   REMARKS
CHARLESTON     MOCLDY    57  51  80 S7        29.49R
$$

WVZ022-031-251200-
North Central West Virginia

CITY           SKY/WX    TMP DP  RH WIND       PRES   REMARKS
CLARKSBURG     CLOUDY    57  56  96 CALM      29.45F
MORGANTOWN     LGT RAIN  57  53  86 CALM      29.47F
$$

WVZ025-035-042-045-251200-
Southern West Virginia

CITY           SKY/WX    TMP DP  RH WIND       PRES   REMARKS
BECKLEY        CLOUDY    52  49  89 W7        29.54R
LOGAN          CLOUDY    55  52  88 VRB5G12   29.53R
BLUEFIELD      MOCLDY    49  46  90 W10       29.57R
LEWISBURG      CLOUDY    55  54  99 SW7       29.53R
$$

WVZ047-251200-
Northern Mountains of West Virginia

CITY           SKY/WX    TMP DP  RH WIND       PRES   REMARKS
ELKINS         PTCLDY    55  53  93 CALM      29.49R
$$

WVZ052-251200-
Eastern Panhandle of West Virginia

CITY           SKY/WX    TMP DP  RH WIND       PRES   REMARKS
MARTINSBURG    RAIN      55  54  96 W6        29.54R FOG
PETERSBURG     CLOUDY    56  55  96 NW3       29.48F
$$



USA.gov is the U.S. government's official web portal to all federal, state and local government web resources and services.